contact:dominique.lefevre@mio.osupytheas.fr, maurice.libes@osupytheas.fr, didier.mallarino@osupytheas.fr
Project:EMSO http://www.emso-fr.org/EMSO-France
Depth: 2436.0 m
Title:EMSO Ligure Ouest : Data MII capteur MICROCAT
DateTime_Computer,Latitude,Longitude,Temperature,Conductivity,Pressure,DateTime_Instrument
DateTime_Computer,Latitude,Longitude,degC,S m-1,dbar,DateTime_Instrument
2023-12-15T00:02:04Z,42.805,6.029,13.3047,4.60127,2470.717,2023-12-15T02:04:33Z
2023-12-15T00:05:07Z,42.805,6.029,13.3046,4.60146,2470.74,2023-12-15T02:07:36Z
2023-12-15T00:08:10Z,42.805,6.029,13.3048,4.60127,2470.717,2023-12-15T02:10:40Z
2023-12-15T00:11:13Z,42.805,6.029,13.3054,4.60122,2470.717,2023-12-15T02:13:43Z
2023-12-15T00:14:16Z,42.805,6.029,13.3057,4.60128,2470.74,2023-12-15T02:16:46Z
2023-12-15T00:17:19Z,42.805,6.029,13.3051,4.60131,2470.74,2023-12-15T02:19:49Z
2023-12-15T00:20:22Z,42.805,6.029,13.3048,4.60117,2470.717,2023-12-15T02:22:52Z
2023-12-15T00:23:25Z,42.805,6.029,13.3050,4.60132,2470.717,2023-12-15T02:25:55Z
2023-12-15T00:26:28Z,42.805,6.029,13.3046,4.60142,2470.693,2023-12-15T02:28:58Z
2023-12-15T00:29:31Z,42.805,6.029,13.3056,4.60131,2470.717,2023-12-15T02:32:01Z
2023-12-15T00:32:34Z,42.805,6.029,13.3051,4.60128,2470.74,2023-12-15T02:35:04Z
2023-12-15T00:35:38Z,42.805,6.029,13.3046,4.60127,2470.717,2023-12-15T02:38:07Z
2023-12-15T00:38:41Z,42.805,6.029,13.3049,4.60127,2470.74,2023-12-15T02:41:10Z
2023-12-15T00:41:44Z,42.805,6.029,13.3050,4.60141,2470.717,2023-12-15T02:44:13Z
2023-12-15T00:44:47Z,42.805,6.029,13.3049,4.60125,2470.717,2023-12-15T02:47:16Z
2023-12-15T00:47:50Z,42.805,6.029,13.3047,4.60140,2470.754,2023-12-15T02:50:20Z
2023-12-15T00:50:53Z,42.805,6.029,13.3046,4.60129,2470.707,2023-12-15T02:53:23Z
2023-12-15T00:53:56Z,42.805,6.029,13.3039,4.60119,2470.684,2023-12-15T02:56:26Z
2023-12-15T00:56:59Z,42.805,6.029,13.3055,4.60128,2470.693,2023-12-15T02:59:29Z
2023-12-15T01:00:02Z,42.805,6.029,13.3054,4.60127,2470.693,2023-12-15T03:02:32Z
2023-12-15T01:03:05Z,42.805,6.029,13.3053,4.60123,2470.717,2023-12-15T03:05:35Z
2023-12-15T01:06:08Z,42.805,6.029,13.3051,4.60146,2470.717,2023-12-15T03:08:38Z
2023-12-15T01:09:11Z,42.805,6.029,13.3043,4.60114,2470.717,2023-12-15T03:11:41Z
2023-12-15T01:12:14Z,42.805,6.029,13.3051,4.60117,2470.693,2023-12-15T03:14:44Z
2023-12-15T01:15:18Z,42.805,6.029,13.3051,4.60137,2470.703,2023-12-15T03:17:47Z
2023-12-15T01:18:21Z,42.805,6.029,13.3044,4.60114,2470.693,2023-12-15T03:20:50Z
2023-12-15T01:21:24Z,42.805,6.029,13.3050,4.60126,2470.717,2023-12-15T03:23:53Z
2023-12-15T01:24:27Z,42.805,6.029,13.3049,4.60127,2470.684,2023-12-15T03:26:57Z
2023-12-15T01:27:30Z,42.805,6.029,13.3049,4.60122,2470.717,2023-12-15T03:30:00Z
2023-12-15T01:30:33Z,42.805,6.029,13.3050,4.60127,2470.693,2023-12-15T03:33:03Z
2023-12-15T01:33:36Z,42.805,6.029,13.3034,4.60114,2470.73,2023-12-15T03:36:06Z
2023-12-15T01:36:39Z,42.805,6.029,13.3049,4.60124,2470.684,2023-12-15T03:39:09Z
2023-12-15T01:39:42Z,42.805,6.029,13.3046,4.60131,2470.73,2023-12-15T03:42:12Z
2023-12-15T01:42:45Z,42.805,6.029,13.3051,4.60130,2470.646,2023-12-15T03:45:15Z
2023-12-15T01:45:48Z,42.805,6.029,13.3054,4.60132,2470.717,2023-12-15T03:48:18Z
2023-12-15T01:48:52Z,42.805,6.029,13.3051,4.60124,2470.679,2023-12-15T03:51:21Z
2023-12-15T01:51:55Z,42.805,6.029,13.3050,4.60130,2470.684,2023-12-15T03:54:24Z
2023-12-15T01:54:58Z,42.805,6.029,13.3046,4.60132,2470.67,2023-12-15T03:57:27Z
2023-12-15T01:58:01Z,42.805,6.029,13.3051,4.60136,2470.717,2023-12-15T04:00:31Z
2023-12-15T02:01:04Z,42.805,6.029,13.3048,4.60120,2470.693,2023-12-15T04:03:34Z
2023-12-15T02:04:07Z,42.805,6.029,13.3044,4.60115,2470.693,2023-12-15T04:06:37Z
2023-12-15T02:07:10Z,42.805,6.029,13.3048,4.60125,2470.73,2023-12-15T04:09:40Z
2023-12-15T02:10:13Z,42.805,6.029,13.3045,4.60120,2470.693,2023-12-15T04:12:43Z
2023-12-15T02:13:16Z,42.805,6.029,13.3043,4.60115,2470.646,2023-12-15T04:15:46Z
2023-12-15T02:16:19Z,42.805,6.029,13.3051,4.60123,2470.67,2023-12-15T04:18:49Z
2023-12-15T02:19:22Z,42.805,6.029,13.3041,4.60117,2470.693,2023-12-15T04:21:52Z
2023-12-15T02:22:25Z,42.805,6.029,13.3049,4.60127,2470.707,2023-12-15T04:24:55Z
2023-12-15T02:25:29Z,42.805,6.029,13.3045,4.60116,2470.693,2023-12-15T04:27:58Z
2023-12-15T02:28:32Z,42.805,6.029,13.3043,4.60120,2470.693,2023-12-15T04:31:01Z
2023-12-15T02:31:35Z,42.805,6.029,13.3048,4.60127,2470.693,2023-12-15T04:34:04Z
2023-12-15T02:34:38Z,42.805,6.029,13.3048,4.60132,2470.693,2023-12-15T04:37:08Z
2023-12-15T02:37:41Z,42.805,6.029,13.3048,4.60128,2470.717,2023-12-15T04:40:11Z
2023-12-15T02:40:44Z,42.805,6.029,13.3051,4.60127,2470.693,2023-12-15T04:43:14Z
2023-12-15T02:43:47Z,42.805,6.029,13.3049,4.60125,2470.693,2023-12-15T04:46:17Z
2023-12-15T02:46:50Z,42.805,6.029,13.3046,4.60127,2470.646,2023-12-15T04:49:20Z
2023-12-15T02:49:53Z,42.805,6.029,13.3039,4.60116,2470.67,2023-12-15T04:52:23Z
2023-12-15T02:52:56Z,42.805,6.029,13.3048,4.60116,2470.67,2023-12-15T04:55:26Z
2023-12-15T02:55:59Z,42.805,6.029,13.3038,4.60117,2470.717,2023-12-15T04:58:29Z
2023-12-15T02:59:02Z,42.805,6.029,13.3048,4.60125,2470.707,2023-12-15T05:01:32Z
2023-12-15T03:02:06Z,42.805,6.029,13.3054,4.60125,2470.693,2023-12-15T05:04:35Z
2023-12-15T03:05:09Z,42.805,6.029,13.3050,4.60143,2470.707,2023-12-15T05:07:38Z
2023-12-15T03:08:12Z,42.805,6.029,13.3054,4.60138,2470.707,2023-12-15T05:10:41Z
2023-12-15T03:11:15Z,42.805,6.029,13.3053,4.60134,2470.693,2023-12-15T05:13:45Z
2023-12-15T03:14:18Z,42.805,6.029,13.3048,4.60127,2470.693,2023-12-15T05:16:48Z
2023-12-15T03:17:21Z,42.805,6.029,13.3045,4.60127,2470.693,2023-12-15T05:19:51Z
2023-12-15T03:20:24Z,42.805,6.029,13.3049,4.60127,2470.707,2023-12-15T05:22:54Z
2023-12-15T03:23:27Z,42.805,6.029,13.3051,4.60127,2470.693,2023-12-15T05:25:57Z
2023-12-15T03:26:30Z,42.805,6.029,13.3054,4.60146,2470.67,2023-12-15T05:29:00Z
2023-12-15T03:29:33Z,42.805,6.029,13.3054,4.60132,2470.67,2023-12-15T05:32:03Z
2023-12-15T03:32:36Z,42.805,6.029,13.3053,4.60125,2470.707,2023-12-15T05:35:06Z
2023-12-15T03:35:39Z,42.805,6.029,13.3048,4.60130,2470.693,2023-12-15T05:38:09Z
2023-12-15T03:38:43Z,42.805,6.029,13.3052,4.60130,2470.717,2023-12-15T05:41:12Z
2023-12-15T03:41:46Z,42.805,6.029,13.3043,4.60129,2470.693,2023-12-15T05:44:15Z
2023-12-15T03:44:49Z,42.805,6.029,13.3048,4.60138,2470.67,2023-12-15T05:47:18Z
2023-12-15T03:47:52Z,42.805,6.029,13.3048,4.60122,2470.707,2023-12-15T05:50:22Z
2023-12-15T03:50:55Z,42.805,6.029,13.3051,4.60127,2470.693,2023-12-15T05:53:25Z
2023-12-15T03:53:58Z,42.805,6.029,13.3049,4.60135,2470.717,2023-12-15T05:56:28Z
2023-12-15T03:57:01Z,42.805,6.029,13.3045,4.60132,2470.693,2023-12-15T05:59:31Z
2023-12-15T04:00:04Z,42.805,6.029,13.3045,4.60131,2470.73,2023-12-15T06:02:34Z
2023-12-15T04:03:07Z,42.805,6.029,13.3043,4.60131,2470.74,2023-12-15T06:05:37Z
2023-12-15T04:06:10Z,42.805,6.029,13.3045,4.60135,2470.73,2023-12-15T06:08:40Z
2023-12-15T04:09:13Z,42.805,6.029,13.3049,4.60134,2470.74,2023-12-15T06:11:43Z
2023-12-15T04:12:16Z,42.805,6.029,13.3061,4.60145,2470.717,2023-12-15T06:14:46Z
2023-12-15T04:15:20Z,42.805,6.029,13.3047,4.60136,2470.74,2023-12-15T06:17:49Z
2023-12-15T04:18:23Z,42.805,6.029,13.3050,4.60144,2470.763,2023-12-15T06:20:52Z
2023-12-15T04:21:26Z,42.805,6.029,13.3053,4.60145,2470.717,2023-12-15T06:23:55Z
2023-12-15T04:24:29Z,42.805,6.029,13.3053,4.60140,2470.74,2023-12-15T06:26:59Z
2023-12-15T04:27:32Z,42.805,6.029,13.3051,4.60144,2470.754,2023-12-15T06:30:02Z
2023-12-15T04:30:35Z,42.805,6.029,13.3055,4.60144,2470.74,2023-12-15T06:33:05Z
2023-12-15T04:33:38Z,42.805,6.029,13.3046,4.60135,2470.763,2023-12-15T06:36:08Z
2023-12-15T04:36:41Z,42.805,6.029,13.3044,4.60135,2470.74,2023-12-15T06:39:11Z
2023-12-15T04:39:44Z,42.805,6.029,13.3052,4.60126,2470.726,2023-12-15T06:42:14Z
2023-12-15T04:42:47Z,42.805,6.029,13.3046,4.60135,2470.726,2023-12-15T06:45:17Z
2023-12-15T04:45:50Z,42.805,6.029,13.3044,4.60132,2470.763,2023-12-15T06:48:20Z
2023-12-15T04:48:53Z,42.805,6.029,13.3049,4.60137,2470.74,2023-12-15T06:51:23Z
2023-12-15T04:51:56Z,42.805,6.029,13.3052,4.60137,2470.763,2023-12-15T06:54:26Z
2023-12-15T04:55:00Z,42.805,6.029,13.3054,4.60130,2470.74,2023-12-15T06:57:29Z
2023-12-15T04:58:03Z,42.805,6.029,13.3053,4.60139,2470.787,2023-12-15T07:00:32Z
2023-12-15T05:01:06Z,42.805,6.029,13.3052,4.60134,2470.777,2023-12-15T07:03:36Z
2023-12-15T05:04:09Z,42.805,6.029,13.3049,4.60132,2470.763,2023-12-15T07:06:39Z
2023-12-15T05:07:12Z,42.805,6.029,13.3046,4.60136,2470.787,2023-12-15T07:09:42Z
2023-12-15T05:10:15Z,42.805,6.029,13.3049,4.60127,2470.81,2023-12-15T07:12:45Z
2023-12-15T05:13:18Z,42.805,6.029,13.3053,4.60122,2470.81,2023-12-15T07:15:48Z
2023-12-15T05:16:21Z,42.805,6.029,13.3048,4.60125,2470.787,2023-12-15T07:18:51Z
2023-12-15T05:19:24Z,42.805,6.029,13.3055,4.60128,2470.787,2023-12-15T07:21:54Z
2023-12-15T05:22:27Z,42.805,6.029,13.3052,4.60132,2470.787,2023-12-15T07:24:57Z
2023-12-15T05:25:30Z,42.805,6.029,13.3051,4.60129,2470.824,2023-12-15T07:28:00Z
2023-12-15T05:28:34Z,42.805,6.029,13.3052,4.60127,2470.8,2023-12-15T07:31:03Z
2023-12-15T05:31:37Z,42.805,6.029,13.3058,4.60130,2470.773,2023-12-15T07:34:06Z
2023-12-15T05:34:40Z,42.805,6.029,13.3052,4.60135,2470.787,2023-12-15T07:37:09Z
2023-12-15T05:37:43Z,42.805,6.029,13.3046,4.60137,2470.81,2023-12-15T07:40:13Z
2023-12-15T05:40:46Z,42.805,6.029,13.3050,4.60140,2470.81,2023-12-15T07:43:16Z
2023-12-15T05:43:49Z,42.805,6.029,13.3054,4.60138,2470.81,2023-12-15T07:46:19Z
2023-12-15T05:46:52Z,42.805,6.029,13.3048,4.60122,2470.81,2023-12-15T07:49:22Z
2023-12-15T05:49:55Z,42.805,6.029,13.3051,4.60144,2470.833,2023-12-15T07:52:25Z
2023-12-15T05:52:58Z,42.805,6.029,13.3046,4.60119,2470.81,2023-12-15T07:55:28Z
2023-12-15T05:56:01Z,42.805,6.029,13.3051,4.60137,2470.833,2023-12-15T07:58:31Z
2023-12-15T05:59:04Z,42.805,6.029,13.3052,4.60127,2470.81,2023-12-15T08:01:34Z
2023-12-15T06:02:07Z,42.805,6.029,13.3054,4.60129,2470.894,2023-12-15T08:04:37Z
2023-12-15T06:05:11Z,42.805,6.029,13.3046,4.60125,2470.833,2023-12-15T08:07:40Z
2023-12-15T06:08:14Z,42.805,6.029,13.3047,4.60138,2470.81,2023-12-15T08:10:43Z
2023-12-15T06:11:17Z,42.805,6.029,13.3047,4.60134,2470.833,2023-12-15T08:13:46Z
2023-12-15T06:14:20Z,42.805,6.029,13.3049,4.60127,2470.833,2023-12-15T08:16:50Z
2023-12-15T06:17:23Z,42.805,6.029,13.3043,4.60115,2470.82,2023-12-15T08:19:53Z
2023-12-15T06:20:26Z,42.805,6.029,13.3051,4.60129,2470.857,2023-12-15T08:22:56Z
2023-12-15T06:23:29Z,42.805,6.029,13.3052,4.60125,2470.847,2023-12-15T08:25:59Z
2023-12-15T06:26:32Z,42.805,6.029,13.3048,4.60127,2470.88,2023-12-15T08:29:02Z
2023-12-15T06:29:35Z,42.805,6.029,13.3039,4.60116,2470.894,2023-12-15T08:32:05Z
2023-12-15T06:32:38Z,42.805,6.029,13.3042,4.60120,2470.857,2023-12-15T08:35:08Z
2023-12-15T06:35:41Z,42.805,6.029,13.3057,4.60129,2470.88,2023-12-15T08:38:11Z
2023-12-15T06:38:44Z,42.805,6.029,13.3049,4.60139,2470.88,2023-12-15T08:41:14Z
2023-12-15T06:41:48Z,42.805,6.029,13.3050,4.60128,2470.894,2023-12-15T08:44:17Z
2023-12-15T06:44:51Z,42.805,6.029,13.3046,4.60126,2470.904,2023-12-15T08:47:20Z
2023-12-15T06:47:54Z,42.805,6.029,13.3054,4.60138,2470.88,2023-12-15T08:50:23Z
2023-12-15T06:50:57Z,42.805,6.029,13.3050,4.60140,2470.88,2023-12-15T08:53:27Z
2023-12-15T06:54:00Z,42.805,6.029,13.3047,4.60127,2470.904,2023-12-15T08:56:30Z
2023-12-15T06:57:03Z,42.805,6.029,13.3042,4.60116,2470.927,2023-12-15T08:59:33Z
2023-12-15T07:00:06Z,42.805,6.029,13.3042,4.60126,2470.88,2023-12-15T09:02:36Z
2023-12-15T07:03:09Z,42.805,6.029,13.3047,4.60133,2470.927,2023-12-15T09:05:39Z
2023-12-15T07:06:12Z,42.805,6.029,13.3046,4.60117,2470.904,2023-12-15T09:08:42Z
2023-12-15T07:09:15Z,42.805,6.029,13.3046,4.60122,2470.904,2023-12-15T09:11:45Z
2023-12-15T07:12:18Z,42.805,6.029,13.3048,4.60136,2470.917,2023-12-15T09:14:48Z
2023-12-15T07:15:21Z,42.805,6.029,13.3048,4.60129,2470.917,2023-12-15T09:17:51Z
2023-12-15T07:18:25Z,42.805,6.029,13.3051,4.60125,2470.904,2023-12-15T09:20:54Z
2023-12-15T07:21:28Z,42.805,6.029,13.3054,4.60131,2470.94,2023-12-15T09:23:57Z
2023-12-15T07:24:31Z,42.805,6.029,13.3056,4.60125,2470.94,2023-12-15T09:27:01Z
2023-12-15T07:27:34Z,42.805,6.029,13.3045,4.60133,2470.936,2023-12-15T09:30:04Z
2023-12-15T07:30:37Z,42.805,6.029,13.3053,4.60137,2470.95,2023-12-15T09:33:07Z
2023-12-15T07:33:40Z,42.805,6.029,13.3048,4.60128,2470.927,2023-12-15T09:36:10Z
2023-12-15T07:36:43Z,42.805,6.029,13.3054,4.60117,2470.94,2023-12-15T09:39:13Z
2023-12-15T07:39:46Z,42.805,6.029,13.3045,4.60127,2470.95,2023-12-15T09:42:16Z
2023-12-15T07:42:49Z,42.805,6.029,13.3041,4.60124,2470.95,2023-12-15T09:45:19Z
2023-12-15T07:45:52Z,42.805,6.029,13.3043,4.60117,2470.964,2023-12-15T09:48:22Z
2023-12-15T07:48:55Z,42.805,6.029,13.3049,4.60137,2470.95,2023-12-15T09:51:25Z
2023-12-15T07:51:59Z,42.805,6.029,13.3039,4.60116,2470.95,2023-12-15T09:54:28Z
2023-12-15T07:55:02Z,42.805,6.029,13.3047,4.60122,2470.964,2023-12-15T09:57:31Z
2023-12-15T07:58:05Z,42.805,6.029,13.3045,4.60118,2470.964,2023-12-15T10:00:34Z
2023-12-15T08:01:08Z,42.805,6.029,13.3051,4.60126,2470.95,2023-12-15T10:03:38Z
2023-12-15T08:04:11Z,42.805,6.029,13.3044,4.60135,2470.927,2023-12-15T10:06:41Z
2023-12-15T08:07:14Z,42.805,6.029,13.3051,4.60140,2470.95,2023-12-15T10:09:44Z
2023-12-15T08:10:17Z,42.805,6.029,13.3046,4.60123,2470.964,2023-12-15T10:12:47Z
2023-12-15T08:13:20Z,42.805,6.029,13.3041,4.60118,2470.964,2023-12-15T10:15:50Z
2023-12-15T08:16:23Z,42.805,6.029,13.3050,4.60135,2470.973,2023-12-15T10:18:53Z
2023-12-15T08:19:26Z,42.805,6.029,13.3045,4.60127,2470.964,2023-12-15T10:21:56Z
2023-12-15T08:22:29Z,42.805,6.029,13.3047,4.60126,2470.973,2023-12-15T10:24:59Z
2023-12-15T08:25:32Z,42.805,6.029,13.3047,4.60128,2470.973,2023-12-15T10:28:02Z
2023-12-15T08:28:36Z,42.805,6.029,13.3051,4.60135,2470.997,2023-12-15T10:31:05Z
2023-12-15T08:31:39Z,42.805,6.029,13.3045,4.60133,2470.973,2023-12-15T10:34:08Z
2023-12-15T08:34:42Z,42.805,6.029,13.3041,4.60125,2470.973,2023-12-15T10:37:11Z
2023-12-15T08:37:45Z,42.805,6.029,13.3049,4.60137,2470.94,2023-12-15T10:40:15Z
2023-12-15T08:40:48Z,42.805,6.029,13.3052,4.60137,2470.95,2023-12-15T10:43:18Z
2023-12-15T08:43:51Z,42.805,6.029,13.3049,4.60131,2470.987,2023-12-15T10:46:21Z
2023-12-15T08:46:54Z,42.805,6.029,13.3044,4.60134,2470.95,2023-12-15T10:49:24Z
2023-12-15T08:49:57Z,42.805,6.029,13.3047,4.60125,2470.973,2023-12-15T10:52:27Z
2023-12-15T08:53:00Z,42.805,6.029,13.3046,4.60125,2470.973,2023-12-15T10:55:30Z
2023-12-15T08:56:03Z,42.805,6.029,13.3049,4.60123,2470.964,2023-12-15T10:58:33Z
2023-12-15T08:59:06Z,42.805,6.029,13.3047,4.60127,2470.95,2023-12-15T11:01:36Z
2023-12-15T09:02:10Z,42.805,6.029,13.3051,4.60127,2470.973,2023-12-15T11:04:39Z
2023-12-15T09:05:13Z,42.805,6.029,13.3050,4.60138,2471.01,2023-12-15T11:07:42Z
2023-12-15T09:08:16Z,42.805,6.029,13.3048,4.60122,2470.973,2023-12-15T11:10:45Z
2023-12-15T09:11:19Z,42.805,6.029,13.3047,4.60125,2470.987,2023-12-15T11:13:49Z
2023-12-15T09:14:22Z,42.805,6.029,13.3047,4.60135,2470.973,2023-12-15T11:16:52Z
2023-12-15T09:17:25Z,42.805,6.029,13.3048,4.60124,2470.973,2023-12-15T11:19:55Z
2023-12-15T09:20:28Z,42.805,6.029,13.3044,4.60138,2470.973,2023-12-15T11:22:58Z
2023-12-15T09:23:31Z,42.805,6.029,13.3047,4.60140,2470.95,2023-12-15T11:26:01Z
2023-12-15T09:26:34Z,42.805,6.029,13.3042,4.60118,2470.997,2023-12-15T11:29:04Z
2023-12-15T09:29:37Z,42.805,6.029,13.3045,4.60122,2471.043,2023-12-15T11:32:07Z
2023-12-15T09:32:40Z,42.805,6.029,13.3051,4.60123,2470.973,2023-12-15T11:35:10Z
2023-12-15T09:35:43Z,42.805,6.029,13.3043,4.60117,2470.987,2023-12-15T11:38:13Z
2023-12-15T09:38:47Z,42.805,6.029,13.3048,4.60122,2470.973,2023-12-15T11:41:16Z
2023-12-15T09:41:50Z,42.805,6.029,13.3050,4.60135,2470.964,2023-12-15T11:44:19Z
2023-12-15T09:44:53Z,42.805,6.029,13.3048,4.60128,2470.95,2023-12-15T11:47:23Z
2023-12-15T09:47:56Z,42.805,6.029,13.3054,4.60125,2470.973,2023-12-15T11:50:26Z
2023-12-15T09:50:59Z,42.805,6.029,13.3044,4.60121,2470.997,2023-12-15T11:53:29Z
2023-12-15T09:54:02Z,42.805,6.029,13.3046,4.60125,2470.987,2023-12-15T11:56:32Z
2023-12-15T09:57:05Z,42.805,6.029,13.3046,4.60131,2470.997,2023-12-15T11:59:35Z
2023-12-15T10:00:08Z,42.805,6.029,13.3046,4.60132,2470.95,2023-12-15T12:02:38Z
2023-12-15T10:03:11Z,42.805,6.029,13.3048,4.60135,2470.973,2023-12-15T12:05:41Z
2023-12-15T10:06:14Z,42.805,6.029,13.3052,4.60128,2470.964,2023-12-15T12:08:44Z
2023-12-15T10:09:17Z,42.805,6.029,13.3047,4.60135,2470.95,2023-12-15T12:11:47Z
2023-12-15T10:12:21Z,42.805,6.029,13.3047,4.60135,2470.95,2023-12-15T12:14:50Z
2023-12-15T10:15:24Z,42.805,6.029,13.3048,4.60130,2470.973,2023-12-15T12:17:53Z
2023-12-15T10:18:27Z,42.805,6.029,13.3048,4.60122,2470.964,2023-12-15T12:20:57Z
2023-12-15T10:21:30Z,42.805,6.029,13.3047,4.60127,2470.95,2023-12-15T12:24:00Z
2023-12-15T10:24:33Z,42.805,6.029,13.3047,4.60135,2470.964,2023-12-15T12:27:03Z
2023-12-15T10:27:36Z,42.805,6.029,13.3048,4.60135,2470.95,2023-12-15T12:30:06Z
2023-12-15T10:30:39Z,42.805,6.029,13.3052,4.60125,2470.94,2023-12-15T12:33:09Z
2023-12-15T10:33:42Z,42.805,6.029,13.3052,4.60127,2470.973,2023-12-15T12:36:12Z
2023-12-15T10:36:45Z,42.805,6.029,13.3050,4.60126,2470.987,2023-12-15T12:39:15Z
2023-12-15T10:39:48Z,42.805,6.029,13.3054,4.60135,2470.95,2023-12-15T12:42:18Z
2023-12-15T10:42:51Z,42.805,6.029,13.3049,4.60127,2470.927,2023-12-15T12:45:21Z
2023-12-15T10:45:55Z,42.805,6.029,13.3053,4.60127,2470.95,2023-12-15T12:48:24Z
2023-12-15T10:48:58Z,42.805,6.029,13.3049,4.60127,2470.973,2023-12-15T12:51:27Z
2023-12-15T10:52:01Z,42.805,6.029,13.3048,4.60131,2470.964,2023-12-15T12:54:30Z
2023-12-15T10:55:04Z,42.805,6.029,13.3045,4.60129,2470.913,2023-12-15T12:57:34Z
2023-12-15T10:58:07Z,42.805,6.029,13.3051,4.60138,2470.964,2023-12-15T13:00:37Z
2023-12-15T11:01:10Z,42.805,6.029,13.3055,4.60127,2470.927,2023-12-15T13:03:40Z
2023-12-15T11:04:13Z,42.805,6.029,13.3051,4.60133,2470.94,2023-12-15T13:06:43Z
2023-12-15T11:07:16Z,42.805,6.029,13.3046,4.60133,2470.964,2023-12-15T13:09:46Z
2023-12-15T11:10:19Z,42.805,6.029,13.3051,4.60136,2470.927,2023-12-15T13:12:49Z
2023-12-15T11:13:22Z,42.805,6.029,13.3053,4.60137,2470.904,2023-12-15T13:15:52Z
2023-12-15T11:16:25Z,42.805,6.029,13.3044,4.60127,2470.904,2023-12-15T13:18:55Z
2023-12-15T11:19:28Z,42.805,6.029,13.3049,4.60135,2470.917,2023-12-15T13:21:58Z
2023-12-15T11:22:32Z,42.805,6.029,13.3051,4.60135,2470.88,2023-12-15T13:25:01Z
2023-12-15T11:25:35Z,42.805,6.029,13.3054,4.60142,2470.927,2023-12-15T13:28:04Z
2023-12-15T11:28:38Z,42.805,6.029,13.3056,4.60127,2470.917,2023-12-15T13:31:08Z
2023-12-15T11:31:39Z,42.805,6.029,13.3051,4.60132,2470.904,2023-12-15T13:34:09Z
2023-12-15T11:34:43Z,42.805,6.029,13.3051,4.60137,2470.904,2023-12-15T13:37:12Z
2023-12-15T11:37:46Z,42.805,6.029,13.3053,4.60137,2470.904,2023-12-15T13:40:15Z
2023-12-15T11:40:49Z,42.805,6.029,13.3052,4.60134,2470.904,2023-12-15T13:43:18Z
2023-12-15T11:43:52Z,42.805,6.029,13.3052,4.60137,2470.904,2023-12-15T13:46:22Z
2023-12-15T11:46:55Z,42.805,6.029,13.3047,4.60133,2470.88,2023-12-15T13:49:25Z
2023-12-15T11:49:58Z,42.805,6.029,13.3048,4.60147,2470.904,2023-12-15T13:52:28Z
2023-12-15T11:53:01Z,42.805,6.029,13.3052,4.60142,2470.917,2023-12-15T13:55:31Z
2023-12-15T11:56:04Z,42.805,6.029,13.3051,4.60142,2470.927,2023-12-15T13:58:34Z
2023-12-15T11:59:07Z,42.805,6.029,13.3055,4.60134,2470.843,2023-12-15T14:01:37Z
2023-12-15T12:02:10Z,42.805,6.029,13.3049,4.60127,2470.88,2023-12-15T14:04:40Z
2023-12-15T12:05:13Z,42.805,6.029,13.3053,4.60139,2470.894,2023-12-15T14:07:43Z
2023-12-15T12:08:17Z,42.805,6.029,13.3056,4.60144,2470.88,2023-12-15T14:10:46Z
2023-12-15T12:11:20Z,42.805,6.029,13.3053,4.60146,2470.894,2023-12-15T14:13:49Z
2023-12-15T12:14:23Z,42.805,6.029,13.3045,4.60135,2470.857,2023-12-15T14:16:52Z
2023-12-15T12:17:26Z,42.805,6.029,13.3053,4.60141,2470.88,2023-12-15T14:19:56Z
2023-12-15T12:20:29Z,42.805,6.029,13.3052,4.60136,2470.857,2023-12-15T14:22:59Z
2023-12-15T12:23:32Z,42.805,6.029,13.3046,4.60135,2470.857,2023-12-15T14:26:02Z
2023-12-15T12:26:35Z,42.805,6.029,13.3048,4.60142,2470.88,2023-12-15T14:29:05Z
2023-12-15T12:29:38Z,42.805,6.029,13.3051,4.60140,2470.894,2023-12-15T14:32:08Z
2023-12-15T12:32:41Z,42.805,6.029,13.3053,4.60142,2470.857,2023-12-15T14:35:11Z
2023-12-15T12:35:44Z,42.805,6.029,13.3054,4.60140,2470.871,2023-12-15T14:38:14Z
2023-12-15T12:38:47Z,42.805,6.029,13.3046,4.60137,2470.871,2023-12-15T14:41:17Z
2023-12-15T12:41:50Z,42.805,6.029,13.3052,4.60139,2470.871,2023-12-15T14:44:20Z
2023-12-15T12:44:54Z,42.805,6.029,13.3052,4.60145,2470.81,2023-12-15T14:47:23Z
2023-12-15T12:47:57Z,42.805,6.029,13.3055,4.60140,2470.857,2023-12-15T14:50:26Z
2023-12-15T12:51:00Z,42.805,6.029,13.3048,4.60143,2470.857,2023-12-15T14:53:30Z
2023-12-15T12:54:03Z,42.805,6.029,13.3055,4.60143,2470.857,2023-12-15T14:56:33Z
2023-12-15T12:57:06Z,42.805,6.029,13.3052,4.60141,2470.847,2023-12-15T14:59:36Z
2023-12-15T13:00:09Z,42.805,6.029,13.3057,4.60150,2470.857,2023-12-15T15:02:39Z
2023-12-15T13:03:12Z,42.805,6.029,13.3051,4.60145,2470.833,2023-12-15T15:05:42Z
2023-12-15T13:06:15Z,42.805,6.029,13.3050,4.60141,2470.833,2023-12-15T15:08:45Z
2023-12-15T13:09:18Z,42.805,6.029,13.3056,4.60138,2470.847,2023-12-15T15:11:48Z
2023-12-15T13:12:21Z,42.805,6.029,13.3057,4.60152,2470.824,2023-12-15T15:14:51Z
2023-12-15T13:15:24Z,42.805,6.029,13.3056,4.60142,2470.833,2023-12-15T15:17:54Z
2023-12-15T13:18:28Z,42.805,6.029,13.3050,4.60138,2470.857,2023-12-15T15:20:57Z
2023-12-15T13:21:31Z,42.805,6.029,13.3050,4.60133,2470.833,2023-12-15T15:24:00Z
2023-12-15T13:24:34Z,42.805,6.029,13.3052,4.60140,2470.81,2023-12-15T15:27:03Z
2023-12-15T13:27:37Z,42.805,6.029,13.3060,4.60148,2470.82,2023-12-15T15:30:07Z
2023-12-15T13:30:39Z,42.805,6.029,13.3055,4.60147,2470.81,2023-12-15T15:33:08Z
2023-12-15T13:33:42Z,42.805,6.029,13.3054,4.60143,2470.787,2023-12-15T15:36:11Z
2023-12-15T13:36:45Z,42.805,6.029,13.3050,4.60142,2470.824,2023-12-15T15:39:15Z
2023-12-15T13:39:48Z,42.805,6.029,13.3055,4.60151,2470.833,2023-12-15T15:42:18Z
2023-12-15T13:42:51Z,42.805,6.029,13.3054,4.60137,2470.8,2023-12-15T15:45:21Z
2023-12-15T13:45:54Z,42.805,6.029,13.3058,4.60144,2470.787,2023-12-15T15:48:24Z
2023-12-15T13:48:57Z,42.805,6.029,13.3054,4.60138,2470.81,2023-12-15T15:51:27Z
2023-12-15T13:52:00Z,42.805,6.029,13.3056,4.60143,2470.787,2023-12-15T15:54:30Z
2023-12-15T13:55:03Z,42.805,6.029,13.3054,4.60150,2470.787,2023-12-15T15:57:33Z
2023-12-15T13:58:06Z,42.805,6.029,13.3058,4.60146,2470.81,2023-12-15T16:00:36Z
2023-12-15T14:01:10Z,42.805,6.029,13.3051,4.60132,2470.81,2023-12-15T16:03:39Z
2023-12-15T14:04:13Z,42.805,6.029,13.3056,4.60137,2470.8,2023-12-15T16:06:42Z
2023-12-15T14:07:16Z,42.805,6.029,13.3051,4.60133,2470.763,2023-12-15T16:09:45Z
2023-12-15T14:10:19Z,42.805,6.029,13.3058,4.60132,2470.81,2023-12-15T16:12:49Z
2023-12-15T14:13:22Z,42.805,6.029,13.3056,4.60144,2470.824,2023-12-15T16:15:52Z
2023-12-15T14:16:25Z,42.805,6.029,13.3060,4.60134,2470.81,2023-12-15T16:18:55Z
2023-12-15T14:19:28Z,42.805,6.029,13.3054,4.60149,2470.8,2023-12-15T16:21:58Z
2023-12-15T14:22:31Z,42.805,6.029,13.3053,4.60129,2470.81,2023-12-15T16:25:01Z
2023-12-15T14:25:34Z,42.805,6.029,13.3051,4.60130,2470.763,2023-12-15T16:28:04Z
2023-12-15T14:28:37Z,42.805,6.029,13.3059,4.60135,2470.763,2023-12-15T16:31:07Z
2023-12-15T14:31:40Z,42.805,6.029,13.3052,4.60132,2470.824,2023-12-15T16:34:10Z
2023-12-15T14:34:43Z,42.805,6.029,13.3056,4.60131,2470.717,2023-12-15T16:37:13Z
2023-12-15T14:37:47Z,42.805,6.029,13.3057,4.60142,2470.787,2023-12-15T16:40:16Z
2023-12-15T14:40:50Z,42.805,6.029,13.3054,4.60138,2470.787,2023-12-15T16:43:19Z
2023-12-15T14:43:53Z,42.805,6.029,13.3050,4.60127,2470.824,2023-12-15T16:46:23Z
2023-12-15T14:46:56Z,42.805,6.029,13.3058,4.60129,2470.763,2023-12-15T16:49:26Z
2023-12-15T14:49:59Z,42.805,6.029,13.3055,4.60141,2470.787,2023-12-15T16:52:29Z
2023-12-15T14:53:02Z,42.805,6.029,13.3054,4.60137,2470.81,2023-12-15T16:55:32Z
2023-12-15T14:56:05Z,42.805,6.029,13.3058,4.60127,2470.8,2023-12-15T16:58:35Z
2023-12-15T14:59:08Z,42.805,6.029,13.3064,4.60132,2470.763,2023-12-15T17:01:38Z
2023-12-15T15:02:11Z,42.805,6.029,13.3053,4.60131,2470.8,2023-12-15T17:04:41Z